Regional Weather Roundup
Issued by NWS

Home | Current Version | Previous Version | Text Only | Print | Product List | Glossary Off
Versions: 1 2 3 4 5 6 7 8 9 10 11 12 13 14 15 16 17 18 19 20 21 22 23 24 25 26 27 28 29 30 31 32 33 34 35 36 37 38 39 40 41 42 43 44 45 46 47 48 49 50

000
ASUS43 KBIS 172302
RWRND

NORTH DAKOTA REGIONAL WEATHER ROUNDUP
NATIONAL WEATHER SERVICE BISMARCK ND
600 PM CDT THU AUG 17 2017

NOTE: "FAIR" INDICATES FEW OR NO CLOUDS BELOW 12,000 FEET WITH NO
SIGNIFICANT WEATHER AND/OR OBSTRUCTIONS TO VISIBILITY.


NDZ001>003-009>011-017-180000-
NORTHWEST NORTH DAKOTA

CITY           SKY/WX    TMP DP  RH WIND       PRES   REMARKS
WILLISTON      SUNNY     84  52  33 N12       29.83S
MINOT          SUNNY     85  52  32 SE9       29.80F
MINOT AFB      SUNNY     84  51  31 E8        29.79F
$$

NDZ018>021-031>035-040>046-180000-
SOUTHWEST NORTH DAKOTA

CITY           SKY/WX    TMP DP  RH WIND       PRES   REMARKS
BISMARCK       SUNNY     81  56  42 S12       29.84F
DICKINSON        N/A     82  45  27 MISG      29.85F
GARRISON         N/A     80  62  54 S8        29.80F
HETTINGER ARPT PTSUNNY   80  51  36 NW8       29.90F
$$

NDZ004>008-012>016-024-026-027-054-180000-
NORTHEAST NORTH DAKOTA

CITY           SKY/WX    TMP DP  RH WIND       PRES   REMARKS
GRAND FORKS    MOSUNNY   79  63  57 N5        29.82S
GRND FRKS AFB  PTSUNNY   80  61  52 CALM      29.83F
DEVILS LAKE    MOSUNNY   78  54  43 NW5       29.87S
$$

NDZ022-023-025-028>030-036>039-047>053-180000-
SOUTHEAST NORTH DAKOTA

CITY           SKY/WX    TMP DP  RH WIND       PRES   REMARKS
FARGO          SUNNY     79  60  52 NW8       29.84S
JAMESTOWN      SUNNY     79  57  46 SE5       29.86S
$$





USA.gov is the U.S. government's official web portal to all federal, state and local government web resources and services.